Theta_e
314 315 315 314 313 314 316 317 318 318 319 320 319 318 321 320 317 321 326 327 325 323 321 321 323 323 323 322 322 321 321 321 321 320 319 319 319 319 319 319 320 319 319 320 321 321 320 320 320 321 322 322 323 324 324 324 325 325 325 326 326 326 327 327 327 327 327 328 327 327 327 326 325 326 325 325 324 323 321 321 321 321 319 319 319 319 318
315 314 314 313 313 314 315 315 316 318 319 321 321 322 323 323 324 326 326 325 323 320 318 320 320 320 321 320 319 318 318 318 319 319 318 318 317 316 316 316 317 317 317 318 319 318 318 317 317 318 318 319 319 320 321 322 323 324 324 324 324 324 325 326 326 326 326 327 327 326 327 326 325 324 325 325 325 324 323 321 321 320 320 320 320 319 319
316 315 314 314 314 314 315 314 314 316 318 319 320 321 322 324 325 325 323 321 320 318 316 317 317 318 319 318 316 316 316 315 316 316 316 315 314 313 313 313 313 313 314 315 316 315 316 315 315 315 315 315 316 316 317 318 319 321 323 323 323 323 323 324 325 325 325 325 325 325 326 326 325 324 324 324 325 325 324 324 322 321 321 322 321 320 320
315 315 314 314 314 314 314 314 314 315 317 319 318 318 320 323 323 322 320 319 318 316 315 316 316 317 318 316 315 314 313 313 313 312 312 311 311 310 310 309 309 309 310 311 311 311 312 312 312 313 314 314 314 314 314 315 315 317 319 320 321 321 322 323 324 324 324 325 325 325 325 325 325 324 324 324 325 324 325 325 324 323 323 323 323 323 323
315 315 314 314 314 315 315 316 316 316 316 317 316 316 319 321 321 320 319 318 316 315 314 315 315 315 314 314 313 311 310 310 309 309 309 308 307 308 307 307 307 307 307 308 308 307 308 308 308 309 310 312 312 313 314 314 314 315 315 316 317 317 318 319 320 321 322 323 324 325 325 325 325 325 324 325 325 325 325 325 324 323 323 324 324 324 324
315 315 315 315 317 317 316 316 317 318 317 316 316 316 316 317 318 318 318 316 315 314 314 314 313 312 311 310 308 308 307 306 306 305 306 306 306 306 305 305 305 306 306 306 306 306 305 305 305 306 307 308 309 310 312 312 313 314 314 315 315 315 315 315 315 316 317 318 320 322 323 324 325 325 325 325 325 325 325 324 324 323 322 322 323 324 324
315 316 318 319 319 318 315 314 315 316 317 317 317 316 315 315 315 316 316 315 314 314 313 312 311 309 308 307 306 305 305 304 304 304 304 304 305 305 304 304 305 306 305 305 305 305 304 304 304 304 305 306 307 308 309 310 311 313 314 314 314 314 314 314 314 314 314 315 316 317 319 320 322 323 324 325 325 325 324 324 324 323 322 322 323 323 323
316 317 319 319 318 316 314 313 312 313 316 317 316 316 316 315 315 315 315 314 312 311 309 308 307 306 304 303 303 303 303 303 303 303 303 303 303 303 303 303 303 304 304 304 304 304 304 304 303 304 304 304 305 306 306 307 308 309 311 312 312 312 313 313 313 313 313 313 314 314 315 317 318 319 320 322 324 324 324 324 324 323 322 321 321 321 321
316 316 317 317 316 316 315 313 312 313 315 315 315 315 315 315 314 314 313 311 310 308 307 306 305 304 304 303 302 302 301 301 302 302 303 303 302 302 302 302 302 302 302 303 303 302 303 303 302 302 303 303 303 304 305 306 306 307 309 309 309 310 310 310 311 311 312 312 313 313 313 314 315 316 317 319 321 322 323 323 323 322 322 321 321 321 320
314 313 314 315 316 317 315 313 312 312 312 312 313 314 314 313 313 313 311 310 309 307 306 306 305 306 307 305 304 303 302 302 302 303 303 303 302 302 302 301 301 301 301 302 301 301 302 301 301 301 301 302 302 303 304 305 304 305 307 307 307 307 307 307 308 309 310 311 311 312 313 313 313 314 315 317 317 319 320 321 321 321 321 321 322 322 322
312 312 313 314 314 314 314 312 311 309 309 311 312 313 312 311 311 311 311 309 309 308 308 308 308 310 310 307 304 303 303 303 303 303 303 303 303 302 301 301 301 301 301 301 301 301 301 301 300 300 300 301 301 302 303 303 303 304 305 306 305 305 305 305 306 307 308 309 310 311 311 312 313 313 314 315 316 317 318 318 319 319 320 321 321 322 322
311 311 312 313 313 311 311 311 308 307 308 310 312 313 312 310 310 310 309 309 310 309 309 310 309 309 309 306 304 303 303 302 302 302 302 302 302 301 301 300 300 300 300 300 301 301 301 301 300 300 300 300 301 301 302 302 302 303 304 304 305 304 304 304 304 305 306 307 308 309 310 311 311 312 313 313 314 316 316 317 316 316 318 320 320 321 321
310 310 311 312 311 309 309 308 306 306 308 311 312 312 310 309 309 309 308 309 309 309 309 309 307 306 305 304 303 302 302 302 302 302 301 301 300 300 300 299 299 299 299 300 300 300 300 300 300 300 300 300 301 301 301 301 302 302 302 302 303 304 303 303 303 304 304 305 306 308 309 310 310 310 311 312 313 314 315 316 315 314 315 318 319 320 321
310 310 310 312 311 307 306 306 305 306 309 310 310 310 309 309 309 308 308 308 308 308 308 306 305 303 303 302 302 301 301 301 301 301 301 300 300 300 299 299 299 298 299 300 300 300 300 300 300 300 300 300 301 301 301 301 302 301 301 301 301 302 302 302 302 303 303 304 304 305 306 307 309 310 310 311 312 312 314 315 314 313 314 316 318 319 320
309 310 310 313 311 306 305 307 306 307 308 308 307 307 307 307 307 307 306 306 306 307 306 304 304 303 302 302 302 301 301 301 301 301 301 300 300 300 299 299 299 298 299 299 300 300 300 300 300 300 300 300 300 300 301 301 301 301 300 300 300 301 301 301 301 302 302 303 303 304 304 305 306 308 309 310 311 311 313 314 314 313 313 314 317 318 318
309 309 309 309 308 305 305 306 306 305 305 306 305 306 305 305 305 305 304 304 305 305 304 304 303 303 302 302 302 301 301 300 301 301 300 300 300 300 299 300 299 298 299 299 299 300 300 300 300 300 300 300 300 300 301 300 300 300 300 300 300 300 301 301 301 301 302 302 302 302 303 304 304 306 307 309 310 310 312 313 313 312 313 314 316 316 316
306 308 307 306 305 305 305 305 305 304 304 304 304 304 304 304 305 304 304 303 303 303 304 303 303 302 301 301 301 300 300 300 301 300 300 300 300 299 299 300 299 298 299 299 300 300 300 300 300 300 300 300 300 301 301 300 300 300 300 300 300 300 300 300 300 301 301 301 302 302 302 303 303 304 305 306 308 309 310 311 312 313 312 312 314 315 314
305 305 305 305 304 304 304 304 304 304 304 303 304 304 303 303 303 303 303 302 302 302 302 302 301 301 300 300 300 300 299 299 300 300 300 300 300 299 300 299 299 299 299 299 300 300 300 300 300 300 300 300 300 300 300 300 299 299 299 299 299 299 299 300 300 300 300 300 301 301 302 302 302 303 303 304 305 307 309 309 311 312 312 311 313 313 313
306 305 304 304 304 303 303 303 302 303 302 302 303 302 302 301 301 301 301 301 300 300 300 300 300 300 299 299 299 299 299 299 300 300 299 299 299 299 299 299 299 299 299 300 300 300 300 300 300 300 300 300 300 299 299 299 299 299 299 299 299 299 299 299 299 299 300 300 300 300 301 302 302 302 302 302 303 305 307 308 309 311 311 311 311 311 312
305 305 304 304 303 303 303 302 302 302 301 301 301 301 300 300 300 300 300 300 300 299 299 299 299 299 299 299 299 298 298 299 300 299 299 299 299 299 299 299 298 298 299 299 299 300 300 300 300 299 300 299 299 299 299 299 299 299 299 299 298 298 298 298 299 299 299 299 299 299 300 300 301 302 302 302 302 303 304 306 307 309 310 311 311 311 311
304 304 304 303 303 303 303 302 302 302 301 301 301 300 300 300 300 300 300 300 299 299 299 299 299 299 298 299 299 298 298 299 299 299 299 298 298 298 298 298 298 298 299 299 299 299 299 299 299 299 299 299 299 299 299 299 299 299 298 298 298 298 298 298 298 298 298 298 299 299 300 300 300 301 302 302 302 303 304 305 306 308 311 311 310 310 310
303 303 303 303 302 302 302 302 302 301 301 301 300 300 300 300 300 300 300 300 300 300 300 299 299 298 298 299 299 298 298 299 299 298 298 298 297 298 298 297 298 298 299 299 299 299 299 299 299 299 299 299 299 299 299 299 298 298 298 297 297 297 297 297 297 298 298 298 298 299 299 299 300 300 301 301 302 302 303 305 306 308 309 309 309 309 309
302 302 303 302 302 302 302 301 301 301 301 300 300 300 300 300 300 300 300 300 300 299 299 299 299 298 298 298 299 299 298 298 298 297 297 297 297 297 297 297 298 298 298 298 298 298 299 299 299 299 299 299 299 298 298 298 297 297 297 297 297 297 297 297 297 297 297 297 297 297 298 299 299 300 300 301 301 301 301 302 304 306 307 307 308 309 309
302 302 302 302 301 301 301 301 301 301 301 300 300 300 299 299 300 300 299 299 299 298 298 298 298 298 298 298 298 298 298 297 297 297 296 296 296 296 297 297 298 298 298 298 298 298 299 299 299 299 299 298 298 298 297 297 296 296 296 296 296 296 296 296 296 296 296 296 297 297 297 297 298 299 299 300 301 302 302 301 302 303 304 306 307 308 308
301 301 301 301 301 301 300 300 300 300 301 300 300 299 299 299 299 299 299 299 298 298 297 298 298 297 297 296 296 297 297 296 296 295 295 296 296 296 296 297 297 297 297 298 298 298 299 299 299 298 298 298 298 297 297 296 296 295 295 295 295 295 295 295 295 295 295 296 296 296 297 297 297 298 299 299 300 301 302 302 302 301 302 304 306 307 306
301 301 300 300 300 300 299 299 300 300 300 299 299 299 299 297 297 297 298 298 297 297 297 297 297 296 296 296 296 296 296 295 295 295 295 296 296 296 296 297 297 297 297 297 298 299 299 298 298 298 298 298 297 296 296 295 295 295 295 295 294 294 294 294 294 294 295 295 295 295 296 296 296 297 298 298 299 300 301 302 302 301 301 304 306 306 305
300 299 300 299 299 299 298 298 299 300 299 299 299 299 298 297 296 297 297 297 296 296 296 296 296 296 296 295 295 295 295 295 295 295 295 296 295 295 296 296 296 297 297 297 298 298 298 298 298 298 298 297 296 295 295 295 295 295 295 295 294 294 294 293 293 293 294 294 294 294 294 295 296 296 297 297 298 299 300 302 302 302 302 303 304 304 305
299 299 299 299 299 299 299 299 299 300 299 299 298 298 298 297 297 296 297 297 296 296 296 296 295 295 295 295 295 295 295 295 295 295 295 295 295 295 295 296 296 297 297 297 298 298 298 298 298 298 297 297 296 295 295 294 294 295 295 295 295 295 295 294 294 293 293 293 293 293 294 294 295 295 295 296 297 298 299 301 302 302 303 303 302 302 303
299 299 299 299 299 299 299 299 299 299 298 298 298 298 297 297 296 295 296 296 296 296 296 296 295 295 295 295 294 294 295 295 294 294 294 295 295 295 295 296 296 296 297 298 298 298 298 298 297 297 297 297 296 295 295 294 294 294 295 295 296 296 296 295 295 294 294 293 293 293 293 293 293 294 294 295 296 297 298 300 301 303 303 302 301 300 301
299 298 298 298 299 298 298 298 298 298 297 298 298 297 297 296 295 295 295 296 296 296 296 296 295 295 295 294 294 294 294 294 293 293 293 294 294 293 293 294 294 296 297 298 297 296 296 296 297 297 297 297 296 295 295 295 295 295 295 295 296 296 296 295 294 294 294 293 293 293 293 293 293 293 294 294 295 295 297 299 301 301 301 300 299 299 299
299 299 298 298 298 298 297 297 297 297 297 297 297 297 296 296 295 295 296 296 296 296 296 295 295 295 294 294 293 293 293 291 291 291 292 293 292 290 290 290 292 294 295 294 294 294 294 296 297 298 297 296 296 295 295 295 295 295 295 295 295 296 295 294 294 294 293 293 293 293 293 293 293 293 293 293 293 294 296 298 300 301 301 299 299 300 299
298 298 298 298 298 297 297 297 297 297 296 297 297 296 296 296 295 295 296 296 296 296 295 295 295 294 293 292 291 291 290 289 289 290 291 291 290 288 288 289 290 291 291 291 292 293 295 296 298 298 297 296 296 295 296 295 295 295 295 295 295 296 295 294 293 293 293 293 292 293 293 293 293 293 293 293 293 294 296 298 300 301 301 300 300 300 298
298 298 298 298 297 297 297 297 297 297 296 297 297 296 296 296 296 296 296 296 296 295 295 294 294 293 291 290 290 290 289 289 289 290 290 289 288 287 288 288 289 290 291 292 293 295 297 298 298 297 297 296 296 296 296 295 294 295 295 295 295 295 295 294 293 293 293 293 292 293 293 293 293 293 293 293 294 296 297 299 300 300 300 300 301 300 297
298 298 298 298 298 297 297 297 297 296 296 297 297 297 297 296 296 296 296 295 295 295 294 294 294 292 290 290 290 289 289 290 290 290 289 288 287 287 287 287 288 290 292 294 296 297 297 297 297 297 296 296 296 296 295 294 294 294 295 295 295 294 294 294 294 294 294 294 293 293 293 293 293 293 293 294 296 297 298 298 299 299 299 300 299 298 297
299 298 298 298 298 298 297 297 297 297 297 297 297 296 296 296 296 296 295 294 294 294 294 293 293 292 290 289 289 290 290 289 289 288 288 287 287 287 287 288 289 292 294 296 297 297 297 296 296 296 296 296 296 296 295 294 294 294 295 295 295 294 294 294 295 295 295 295 295 294 294 294 294 295 295 296 297 298 298 298 299 300 300 299 297 296 295
298 298 298 298 298 298 297 297 298 298 297 297 296 296 296 296 296 295 295 295 295 295 294 293 292 292 290 290 290 290 290 289 288 288 288 287 287 286 287 288 290 292 295 296 296 295 295 296 296 295 296 297 297 297 296 294 294 294 294 294 294 295 295 295 296 296 296 296 296 295 295 296 296 297 297 297 297 297 298 299 299 299 299 298 296 295 294
298 298 298 298 298 298 298 297 297 297 297 297 297 296 296 296 296 296 296 295 295 295 294 293 292 291 290 290 290 290 289 289 289 288 287 287 286 285 286 288 290 293 295 296 295 294 295 295 295 295 296 297 297 297 296 295 295 295 294 294 294 294 295 295 296 296 296 296 296 296 296 296 296 297 297 297 297 297 298 298 297 297 296 296 295 295 295
298 298 298 297 297 297 297 297 297 297 297 297 297 296 296 296 296 296 296 295 295 294 293 292 292 291 290 290 290 289 288 288 288 287 286 286 285 286 287 290 291 293 294 294 293 293 294 294 294 295 297 297 298 297 297 296 295 295 295 294 294 294 294 294 295 296 296 296 296 297 296 296 296 297 298 297 297 297 297 297 297 297 296 294 294 295 295
298 298 297 297 297 297 297 297 296 296 296 296 296 295 295 295 295 295 295 295 295 294 293 293 293 293 292 292 292 291 289 289 288 286 286 286 286 287 290 291 292 292 292 292 292 294 294 293 294 296 297 297 297 297 297 296 296 296 295 295 294 293 293 293 294 295 295 295 296 296 296 296 296 297 297 297 296 296 296 297 297 297 297 296 295 295 295
298 297 297 297 297 297 297 297 296 296 295 295 295 295 295 296 296 296 295 295 295 294 293 293 293 294 294 294 293 293 292 291 288 286 286 287 288 290 292 293 292 292 292 291 292 293 293 293 294 296 296 296 296 296 296 296 296 297 296 295 295 294 293 293 293 293 294 294 295 295 295 295 295 295 296 296 296 296 296 296 296 296 296 296 295 295 295
297 297 297 297 297 297 297 296 296 296 296 295 295 295 296 296 296 296 296 295 295 294 293 292 293 293 294 294 293 292 292 292 291 290 289 290 291 292 293 293 293 291 290 290 291 292 293 294 295 295 294 294 295 295 295 296 297 297 297 296 295 294 294 293 292 292 292 293 293 294 294 294 294 294 294 294 295 295 295 295 294 294 293 293 293 293 293
297 297 297 297 297 297 297 297 296 296 296 296 295 295 295 295 296 296 296 295 294 294 293 292 292 292 292 292 292 291 291 291 292 291 292 292 291 291 291 292 292 291 289 289 291 293 294 294 294 293 292 293 294 295 295 296 296 297 297 296 295 295 294 294 293 293 292 292 292 292 292 292 292 292 292 292 293 293 293 293 293 293 293 292 292 292 292
298 297 297 297 297 297 297 297 297 296 297 296 296 296 296 295 295 296 296 295 294 294 293 293 292 291 291 291 291 292 292 291 291 291 292 291 291 290 290 291 291 290 288 288 290 293 294 293 293 291 291 293 294 295 295 296 297 297 297 297 296 295 295 294 294 293 293 293 292 292 291 291 291 291 291 291 291 291 292 292 292 292 292 292 292 291 291
298 298 298 298 298 298 297 297 297 297 298 297 297 296 296 296 296 296 296 295 295 294 293 292 292 292 292 292 292 292 292 292 292 292 292 292 293 292 290 289 289 289 288 288 290 293 293 292 291 290 291 293 294 295 295 296 297 297 297 296 296 296 295 295 294 294 293 293 293 292 291 291 291 291 291 290 291 291 291 291 291 291 291 291 291 291 290
298 298 298 298 298 297 297 298 298 298 298 298 297 297 297 296 296 296 296 296 295 295 293 292 292 292 292 292 292 292 292 292 291 291 291 292 294 293 290 288 288 288 287 288 290 293 292 290 289 290 291 292 293 294 295 295 296 296 296 296 296 296 296 295 295 294 294 293 293 292 292 292 292 291 291 291 291 291 291 291 291 291 291 290 290 290 290
297 297 298 297 297 297 297 297 297 297 297 297 297 297 296 296 296 296 296 296 296 295 294 293 292 291 292 292 292 292 291 291 291 290 291 291 291 290 288 286 286 285 286 288 291 292 290 288 288 289 290 292 293 293 294 295 295 295 296 296 296 296 296 295 295 294 294 294 293 293 292 292 291 291 291 291 291 291 291 291 291 291 290 290 290 290 290
297 297 297 297 297 297 296 296 297 297 297 297 298 297 296 296 296 296 296 296 296 295 295 294 293 292 291 291 291 291 291 291 291 291 290 290 289 288 287 287 285 284 285 288 289 289 288 287 286 287 289 291 292 293 294 294 294 295 295 295 295 295 295 295 295 294 294 293 293 293 292 292 291 291 291 290 290 290 291 291 291 291 290 290 290 290 290
297 297 297 297 296 297 296 296 296 297 297 297 297 297 296 296 296 297 296 296 296 296 295 294 293 293 292 291 291 291 291 292 292 292 291 290 290 290 290 289 286 284 285 288 289 289 287 286 285 287 289 291 292 292 293 293 293 293 294 293 294 294 294 294 294 294 293 293 293 293 292 292 292 291 291 290 290 290 290 290 290 290 290 289 289 289 289
296 297 297 297 297 297 297 296 297 297 297 297 297 296 296 296 296 297 297 297 296 296 296 295 294 293 292 291 291 291 290 290 291 291 291 290 290 290 290 289 286 285 286 290 292 290 288 286 285 288 290 291 291 292 292 292 291 291 291 291 291 292 292 292 292 293 292 292 292 292 291 291 291 290 290 289 289 288 288 288 288 288 288 288 288 288 288
297 297 297 296 297 297 296 296 297 297 296 296 296 296 296 296 296 297 297 297 297 297 296 295 295 294 293 292 291 291 290 290 290 290 290 290 289 289 290 289 287 285 286 289 291 290 289 288 287 288 290 291 291 291 291 291 291 290 291 290 290 290 290 290 290 291 291 291 291 291 290 290 289 289 288 288 287 287 287 287 287 287 287 287 287 286 286
297 297 297 296 296 296 296 296 296 296 296 296 296 296 296 296 296 296 297 297 297 297 296 296 295 295 294 293 292 291 291 290 290 289 289 290 289 288 288 288 287 285 285 287 289 290 290 290 288 288 289 290 290 289 289 289 290 290 290 290 290 290 290 290 290 290 290 290 290 290 290 289 289 288 288 287 287 287 287 286 286 286 286 286 285 285 285
297 297 297 296 296 296 296 296 296 296 296 296 296 296 295 296 296 296 296 296 296 296 297 297 296 296 294 293 293 292 291 291 290 289 289 289 290 289 288 287 287 286 286 288 290 290 290 288 287 288 289 290 290 288 288 288 289 289 288 289 289 289 289 290 289 289 289 289 289 289 289 288 288 288 288 287 287 287 286 286 286 285 285 285 284 284 284
Wind_Speed
5 4 4 7 9 10 7 5 4 4 3 1 3 2 3 4 3 2 8 13 13 11 10 10 9 9 9 9 8 8 9 9 10 11 11 11 11 11 11 10 10 11 10 10 10 11 11 11 11 11 11 10 10 10 10 9 9 9 9 10 10 9 8 8 7 7 7 6 6 6 7 7 9 10 11 11 12 12 12 12 13 13 13 14 13 14 14
9 8 8 8 7 6 6 5 6 7 6 6 5 6 6 5 5 8 13 15 13 10 9 9 9 8 10 10 9 9 10 10 9 10 11 12 12 11 11 11 11 11 11 11 12 13 12 11 11 10 10 10 9 9 9 9 8 8 8 9 9 8 8 7 6 6 6 5 5 6 6 6 8 11 11 11 11 12 13 13 13 13 14 15 15 16 16
9 10 10 10 10 9 8 6 5 6 5 4 7 8 8 8 10 11 14 14 11 8 8 10 9 9 10 11 11 11 11 11 11 10 11 12 12 12 12 12 12 12 12 13 14 14 13 12 12 11 10 10 10 9 9 8 8 8 7 8 8 8 7 6 5 5 5 4 4 5 6 6 7 9 10 9 10 11 11 12 13 13 14 15 16 16 17
7 10 11 11 11 11 12 12 9 5 3 4 6 6 6 6 8 11 11 9 7 8 9 9 10 11 12 13 13 11 10 11 12 11 12 13 13 13 13 13 13 13 13 13 14 14 14 14 13 12 11 11 11 10 9 8 8 8 8 8 8 8 7 6 5 4 3 3 3 4 5 5 6 6 6 7 7 9 10 11 12 14 14 15 15 14 15
6 9 11 9 8 9 9 9 9 8 5 2 3 4 6 7 4 5 5 6 9 10 10 11 11 12 12 11 11 10 10 11 11 12 12 13 14 13 13 13 13 13 13 14 15 16 16 16 15 14 13 12 11 10 9 8 7 7 8 9 8 8 7 7 6 4 2 2 1 2 3 4 5 5 6 6 6 7 9 10 11 13 14 15 15 14 15
6 8 9 9 8 8 3 2 2 3 7 7 4 3 5 6 6 5 8 10 12 12 11 12 13 12 11 10 9 9 10 10 10 12 13 13 13 13 13 13 13 14 15 16 16 17 17 17 16 16 15 14 11 9 9 8 7 7 7 8 8 8 8 7 6 4 3 2 1 1 1 2 4 5 6 6 6 7 8 10 12 13 15 15 15 14 15
4 4 7 8 8 4 2 3 4 4 1 6 7 7 6 5 6 10 12 12 12 12 12 12 13 13 13 12 11 11 11 10 10 11 12 12 12 12 12 12 13 14 15 15 16 16 15 15 16 16 16 17 14 11 10 9 8 7 7 7 8 7 7 7 6 5 5 4 3 3 2 2 3 5 6 7 8 8 8 10 12 13 15 16 16 17 18
1 3 6 5 2 4 6 4 3 2 1 6 7 5 5 6 8 11 13 13 13 13 14 14 13 14 14 12 11 12 12 12 11 10 9 10 10 11 11 12 13 13 13 12 12 12 12 13 14 13 14 15 14 13 12 11 10 8 7 6 8 7 7 7 6 6 5 4 4 4 4 4 4 5 6 7 9 9 10 11 12 14 16 16 17 21 22
3 5 5 2 2 4 5 5 3 2 2 2 1 2 5 4 6 10 13 13 14 15 14 15 14 14 13 10 8 10 11 10 10 10 9 9 10 10 11 11 11 10 10 9 9 9 9 11 11 11 11 12 13 12 11 11 10 8 6 7 8 8 7 8 7 7 6 6 5 5 5 5 6 6 6 7 8 9 10 12 13 14 15 16 18 20 20
3 5 5 2 2 3 3 7 6 5 4 5 5 2 5 1 3 10 12 12 14 15 14 14 14 12 10 8 7 9 11 11 11 11 10 10 9 9 8 7 6 5 5 5 5 5 7 8 9 10 10 10 10 9 8 8 9 8 7 7 8 8 8 8 9 8 8 8 7 7 7 7 7 7 8 8 8 9 10 11 13 14 14 16 18 17 17
4 6 7 5 3 1 2 6 6 4 3 4 4 2 4 2 3 9 11 11 13 13 13 13 11 8 5 7 7 8 10 10 10 9 10 10 9 8 8 6 4 3 3 3 3 4 4 5 7 8 8 7 7 7 7 8 9 8 8 8 9 9 10 10 10 10 10 10 9 9 9 8 8 8 9 10 10 10 11 11 12 13 13 15 16 16 16
7 7 7 3 1 3 4 5 5 5 4 2 4 5 4 5 6 8 10 11 11 10 11 10 5 1 3 7 8 8 10 10 9 8 7 8 7 6 7 7 5 4 4 3 4 4 4 4 6 7 7 7 7 7 8 9 9 9 9 9 10 10 10 11 11 11 11 10 10 10 10 10 10 10 10 11 11 12 13 13 13 13 13 14 15 15 14
7 7 6 2 4 5 5 5 5 6 4 2 3 1 5 7 8 8 9 9 9 8 7 5 5 7 8 9 9 9 9 9 9 8 7 7 6 6 7 5 5 5 4 3 3 4 5 5 6 7 7 7 8 8 8 9 9 10 10 11 11 11 11 12 12 12 12 12 12 12 12 12 13 12 12 12 12 13 13 14 14 15 14 13 14 14 14
5 5 6 4 3 4 6 4 4 6 4 2 2 4 6 6 7 9 8 6 6 7 6 7 9 10 10 10 9 9 8 8 7 7 6 5 5 5 4 3 3 4 4 2 3 4 5 5 6 6 7 7 7 7 8 8 9 10 11 11 12 13 13 14 13 13 13 13 14 14 14 14 14 14 14 14 14 14 15 15 16 16 15 14 14 14 14
4 4 5 4 1 3 6 2 2 5 3 3 4 5 6 6 7 7 7 5 4 5 8 10 9 9 10 9 8 8 8 7 6 6 5 4 4 4 3 2 3 5 5 4 5 6 5 5 6 6 7 7 7 8 9 9 10 11 12 12 13 14 14 14 14 15 16 16 16 16 16 16 16 16 16 16 16 16 16 16 17 16 16 16 16 15 13
4 3 1 1 2 3 4 2 3 5 6 4 4 5 6 6 6 6 6 5 5 5 7 7 7 8 8 7 7 6 6 5 5 5 4 3 4 4 4 4 5 6 7 6 6 6 5 6 6 6 6 7 7 8 9 9 10 11 11 12 12 13 14 15 15 16 17 17 17 17 17 17 18 18 18 18 18 19 18 18 19 19 18 17 16 14 13
3 4 4 3 3 5 6 5 6 7 7 4 4 6 5 3 4 5 5 5 5 5 5 6 6 6 6 6 6 5 4 4 4 4 4 4 4 4 4 5 5 7 7 6 6 6 5 6 6 5 5 6 7 8 9 9 10 10 11 11 12 13 14 15 16 17 18 18 19 19 19 19 19 19 20 19 20 21 21 20 20 19 19 20 18 17 17
6 6 6 5 5 6 7 7 7 7 7 5 6 8 7 7 7 5 5 5 5 5 4 4 5 6 5 5 5 4 4 4 4 4 4 4 4 5 5 5 6 7 7 5 5 5 6 6 6 6 6 7 9 10 11 11 12 13 13 14 14 14 15 15 16 17 18 19 19 20 20 21 21 21 22 21 21 21 22 23 22 21 20 21 19 16 18
4 4 5 6 6 7 7 7 7 7 7 7 7 8 7 7 7 7 6 5 5 6 6 6 5 5 5 4 4 4 3 3 3 3 4 5 6 6 6 6 7 7 6 5 5 6 6 7 7 8 9 10 11 12 13 14 15 15 16 17 17 17 17 17 16 17 17 18 18 19 20 21 22 22 23 23 23 22 23 23 22 21 21 21 19 19 20
2 5 8 7 7 7 6 6 5 6 6 8 8 8 7 6 6 6 5 4 5 5 5 5 4 4 4 4 4 4 3 3 3 4 5 6 6 6 6 7 7 6 6 6 6 7 8 9 9 10 11 12 13 14 15 15 16 17 17 18 18 18 19 19 19 18 18 18 18 19 20 21 22 22 22 23 23 24 24 24 23 23 23 20 17 17 18
5 7 8 8 7 7 6 5 5 5 6 7 8 7 7 7 7 6 5 5 5 5 4 4 4 3 4 4 4 4 3 3 4 6 7 7 7 7 7 7 6 5 5 6 8 9 9 10 10 11 12 13 14 15 16 17 17 18 18 19 19 19 19 19 19 19 19 19 19 20 21 21 22 23 23 23 23 22 21 19 19 21 22 19 14 12 9
3 4 7 6 3 3 6 6 6 6 5 5 6 5 5 5 5 4 4 4 4 5 5 5 4 4 4 4 4 4 4 4 5 7 8 8 8 8 8 7 6 5 6 8 9 9 10 10 11 12 13 15 16 17 18 18 18 18 19 18 18 18 18 18 18 18 18 19 20 21 22 21 21 22 23 25 26 27 23 19 15 14 18 21 21 16 10
3 4 6 3 1 2 6 7 6 5 4 3 3 3 3 3 3 3 3 3 3 4 4 4 4 4 4 5 5 5 5 6 7 7 9 10 10 9 8 7 6 6 7 8 8 9 10 11 12 14 15 16 18 18 18 18 18 17 17 17 17 17 17 17 17 17 18 19 19 20 21 21 20 21 23 24 25 28 29 28 21 14 14 17 21 21 20
4 5 3 1 2 4 6 6 5 4 2 1 2 3 2 2 2 2 3 3 3 3 3 3 4 5 5 6 6 6 7 8 8 9 10 10 9 9 8 7 6 7 7 7 8 9 11 12 13 15 17 17 19 19 19 18 17 16 16 16 17 17 18 18 18 18 18 19 19 19 20 20 21 21 22 23 21 21 25 28 28 22 17 14 17 22 25
4 5 4 4 4 5 5 5 4 3 2 2 3 3 3 4 4 3 3 3 3 3 3 3 4 5 6 6 7 7 8 8 9 9 10 9 8 7 6 6 6 7 7 8 9 10 11 13 15 16 17 19 19 19 18 16 15 15 15 16 17 18 18 19 19 19 19 19 19 19 19 19 19 20 21 22 22 19 18 22 26 27 24 19 17 18 20
4 5 3 3 4 3 2 3 3 3 3 3 3 3 4 4 3 3 3 3 4 4 4 4 5 6 6 6 7 7 7 8 8 9 9 8 7 6 6 6 6 7 8 9 9 10 12 14 15 17 18 19 19 18 16 15 15 15 16 17 18 18 19 20 20 19 20 20 19 19 18 18 18 19 20 20 22 21 18 15 17 20 21 21 20 18 18
3 3 2 1 2 1 0 2 3 3 2 3 2 1 3 5 4 1 0 1 2 2 3 4 5 6 6 6 6 6 7 7 8 8 7 7 6 6 6 6 7 8 9 9 10 11 12 14 16 17 18 18 17 17 15 15 15 16 17 18 18 19 20 21 20 20 20 20 20 19 18 18 18 18 19 20 20 22 21 15 13 14 17 18 19 19 19
2 1 1 2 1 1 1 2 3 2 2 2 1 1 1 3 2 1 1 0 1 2 3 4 4 5 6 6 6 7 7 7 8 7 7 7 6 6 6 7 8 9 9 9 9 10 12 14 15 16 17 18 18 17 16 15 15 16 17 18 19 20 20 19 18 19 19 18 19 19 18 18 18 17 19 20 20 21 21 17 15 15 14 14 19 21 20
2 1 0 1 2 2 1 2 2 3 3 1 1 2 0 1 1 2 1 1 2 3 3 4 4 4 6 6 6 7 7 7 7 7 7 7 7 7 7 8 9 9 8 8 8 10 12 13 14 16 18 20 19 17 15 15 15 16 17 18 19 21 20 16 15 16 16 16 16 17 18 19 18 18 18 19 20 20 21 19 15 12 8 9 17 19 17
2 2 1 0 1 1 2 2 2 3 3 2 3 3 1 1 3 3 1 2 3 4 4 4 4 4 5 6 6 7 7 6 7 7 7 7 7 8 9 9 10 9 7 7 9 12 12 12 14 17 20 21 19 15 15 15 16 17 17 18 18 18 17 15 13 13 13 13 13 14 15 16 17 17 17 18 19 20 22 21 15 9 6 8 13 15 15
3 3 1 1 1 3 3 2 3 4 3 3 4 4 2 2 4 4 3 3 3 4 4 5 5 5 5 5 6 6 5 5 6 7 6 6 7 9 11 10 8 8 9 11 13 13 12 12 14 17 20 20 17 15 16 16 17 17 16 16 17 16 14 13 13 11 10 10 10 11 12 13 15 15 16 18 20 20 22 22 15 8 10 12 12 12 15
4 4 3 3 3 4 4 3 3 4 4 3 4 4 4 4 4 4 3 3 4 4 5 5 4 2 2 3 4 4 4 7 8 6 5 7 9 11 12 10 9 11 13 14 14 13 13 13 14 17 18 19 17 16 16 16 16 16 16 16 16 15 13 13 13 10 8 8 9 10 11 13 14 14 15 17 19 20 22 20 12 9 15 18 15 13 16
5 4 4 4 4 5 4 3 4 5 4 3 4 5 5 5 4 4 4 4 4 4 5 4 2 1 2 0 2 4 6 8 7 4 4 7 10 11 11 10 10 12 13 12 11 12 12 12 14 15 16 17 16 16 17 16 15 15 15 15 15 13 12 12 11 9 8 8 9 9 11 12 13 14 16 18 19 20 20 16 9 12 18 17 14 15 18
6 4 3 2 3 4 4 4 5 5 3 4 6 7 6 5 5 4 3 3 4 4 4 3 2 4 4 3 3 4 6 6 5 4 4 8 11 11 12 12 11 11 11 9 9 9 9 11 12 13 15 17 16 15 16 16 14 12 13 14 13 12 11 10 10 10 9 10 9 9 10 12 14 16 18 18 17 17 15 11 9 10 8 10 15 16 18
5 4 3 2 3 4 4 4 5 4 3 5 6 6 5 5 4 3 1 3 5 5 2 2 3 5 6 6 5 5 6 6 6 6 7 9 10 10 11 11 11 10 9 8 7 7 8 10 12 13 15 16 15 13 17 17 13 11 12 13 12 11 10 10 10 10 9 7 7 8 9 10 13 14 12 8 7 8 9 7 6 5 9 16 17 17 18
6 5 3 2 2 4 4 4 3 3 5 6 6 6 5 4 4 4 4 4 5 4 2 3 5 7 9 9 7 7 7 7 7 6 6 8 9 10 10 10 10 9 8 7 6 7 9 10 11 12 13 14 13 12 16 18 14 11 12 13 11 11 11 10 9 8 6 5 5 5 5 7 8 7 5 7 8 4 2 4 7 9 12 14 15 15 17
6 4 2 2 2 3 3 3 2 4 6 6 6 7 7 6 5 6 6 5 4 2 2 3 5 7 9 10 9 8 8 7 7 6 6 7 9 10 10 10 9 8 7 6 7 8 9 11 11 11 11 12 13 12 15 17 14 12 12 12 11 11 12 11 10 8 8 8 8 7 6 8 8 7 10 12 12 11 10 11 11 11 12 14 15 14 13
5 3 1 2 2 2 2 2 3 4 5 5 6 7 7 6 5 5 5 5 4 3 3 5 6 7 8 8 9 9 10 8 8 8 8 8 9 9 9 8 6 5 5 6 8 9 10 11 12 11 11 11 12 13 14 15 14 12 12 11 11 10 10 11 11 10 9 11 11 9 9 10 9 7 11 12 12 12 11 10 10 11 13 15 15 13 11
4 3 2 2 2 2 2 2 3 4 5 6 6 7 6 6 5 5 5 5 4 3 4 5 6 7 7 7 8 10 10 9 8 8 8 8 8 9 10 8 5 3 4 6 8 8 8 10 12 11 10 11 12 12 12 14 14 12 11 11 11 10 9 9 10 10 9 10 11 11 12 13 13 12 11 10 10 10 10 10 11 11 12 13 14 12 12
5 4 4 4 3 2 2 3 4 4 5 6 6 6 6 6 6 6 5 5 3 3 4 5 5 6 7 7 7 7 8 8 8 8 8 8 9 10 10 7 3 1 4 6 6 6 8 10 10 10 9 10 10 10 11 13 13 12 12 12 12 11 10 10 9 9 9 10 10 11 11 12 13 13 13 12 11 12 12 12 11 11 11 12 13 12 13
6 5 5 4 4 3 3 3 4 5 6 6 6 6 6 6 5 5 5 4 3 3 4 5 5 5 5 5 4 4 4 6 7 8 8 8 8 9 7 2 3 1 5 6 5 6 9 9 8 8 10 10 9 8 10 13 12 10 11 13 12 12 12 11 10 10 10 10 10 10 10 10 11 11 12 13 13 13 12 12 12 12 12 13 13 14 15
8 7 6 6 4 4 4 4 4 5 6 7 7 7 7 7 6 6 5 4 3 3 4 4 4 5 5 4 4 4 4 4 5 6 7 7 6 6 4 2 3 3 6 5 4 6 8 6 6 8 10 10 7 7 9 12 10 9 10 11 11 12 12 12 12 12 12 12 11 11 11 11 11 12 12 13 13 13 12 12 13 13 14 15 16 16 17
10 9 8 7 6 5 5 5 5 6 6 7 7 8 8 8 7 7 6 5 4 4 4 3 4 4 5 5 5 5 4 4 5 5 6 6 4 3 3 3 3 5 7 5 4 5 6 5 6 8 9 7 7 8 10 10 9 9 9 9 10 10 11 12 12 13 13 13 14 13 13 13 13 13 13 13 13 13 13 14 14 15 15 16 17 17 17
10 10 9 8 7 6 6 7 7 6 6 6 7 8 9 8 8 7 7 6 5 5 4 4 3 4 5 5 5 5 4 4 3 4 5 5 5 4 1 2 4 5 5 4 3 4 5 5 5 7 7 5 6 8 9 8 7 7 8 8 8 9 9 10 11 12 12 13 13 13 13 14 13 13 14 13 13 12 13 14 15 15 16 17 17 17 18
9 10 11 10 9 8 8 8 6 5 5 6 7 8 9 9 9 8 8 7 6 5 4 4 4 4 4 5 5 4 4 3 2 2 4 3 2 4 3 2 2 3 3 3 3 4 5 4 5 6 5 5 6 8 8 6 5 6 6 7 8 8 8 9 9 10 11 11 11 12 12 13 13 13 13 13 13 14 14 14 15 16 17 18 17 17 18
10 11 11 10 10 10 10 9 7 6 7 8 8 8 8 9 9 9 8 8 7 6 6 5 5 5 4 4 4 4 4 3 3 3 3 2 1 2 1 2 3 2 0 2 3 4 4 5 5 4 3 4 7 9 7 5 4 5 5 6 6 7 7 8 9 9 10 10 11 11 12 12 12 13 13 13 14 14 15 16 16 16 17 17 17 17 18
9 9 10 10 11 11 11 11 9 8 8 8 8 7 7 8 9 10 9 9 8 7 7 6 6 5 5 5 5 5 4 4 4 4 3 2 1 0 1 3 3 2 2 2 2 4 5 6 5 3 3 5 6 7 6 4 4 5 5 5 6 6 6 6 7 8 9 9 10 11 12 12 11 12 12 13 13 13 13 14 15 14 14 14 14 14 14
10 12 12 11 11 11 11 11 11 10 10 9 9 7 7 8 9 10 10 10 9 9 8 7 7 6 6 6 6 5 5 4 3 3 4 3 2 2 1 1 3 3 3 2 2 5 8 8 4 3 5 6 6 5 4 4 5 5 5 5 6 6 6 5 5 6 6 7 7 8 9 9 10 10 10 11 12 12 12 12 12 12 12 12 12 12 12
10 14 13 10 9 10 11 11 10 10 10 11 12 10 8 8 9 10 10 10 11 10 9 9 9 8 7 7 7 6 6 5 4 1 2 3 2 2 2 2 3 2 2 1 1 4 8 8 4 6 7 7 6 4 4 5 5 5 5 5 5 6 7 7 6 6 5 6 6 7 7 8 8 9 9 9 10 10 10 10 10 10 10 10 10 10 11
11 12 11 9 9 10 10 9 10 11 11 12 12 11 9 8 10 10 10 10 11 10 10 10 9 9 9 9 8 7 7 7 6 4 3 3 3 3 3 2 3 2 1 2 2 2 4 5 4 5 6 6 4 4 4 5 5 5 6 5 5 6 6 7 7 6 6 5 5 6 7 7 7 8 8 9 9 9 9 9 9 10 10 9 9 9 9
9 10 9 9 9 9 9 9 10 10 10 10 11 11 12 13 12 10 9 9 10 11 10 10 10 9 9 9 9 8 8 8 8 7 6 5 4 5 5 4 3 3 2 2 2 1 2 2 0 1 3 3 3 3 4 5 4 5 5 5 5 5 5 5 6 6 6 6 7 7 7 7 7 8 8 8 8 8 8 8 8 8 8 8 7 7 7
11 10 9 9 9 9 8 9 10 10 11 11 12 13 14 14 14 13 11 11 11 11 11 11 11 10 10 9 9 9 9 9 9 8 8 7 7 6 6 5 4 3 2 3 3 2 1 1 1 1 2 2 2 2 3 4 4 4 4 5 5 5 5 5 5 6 6 7 7 7 8 8 8 8 8 8 8 8 8 8 7 7 7 7 7 7 7
Wind_Direction
184 178 221 271 307 331 349 24 34 24 38 160 212 248 301 293 266 156 122 120 119 125 131 118 105 107 107 106 110 112 117 128 133 130 123 115 110 103 97 94 92 89 86 85 88 90 91 95 98 97 98 98 98 102 106 110 116 120 124 127 126 126 129 129 132 142 148 158 176 190 195 196 197 199 200 198 200 202 201 201 201 203 204 204 204 208 207
205 201 199 211 234 279 315 348 12 20 38 68 81 67 60 68 86 106 115 111 106 118 132 119 107 110 109 107 111 113 115 120 126 130 127 118 109 102 97 95 94 89 86 84 79 75 75 78 83 87 91 96 98 101 106 111 114 113 114 116 115 114 112 110 113 124 130 142 169 179 184 194 199 204 206 203 203 206 209 211 209 210 214 212 210 212 211
210 205 203 203 205 215 239 272 322 344 5 65 77 65 67 87 101 107 107 104 105 121 133 129 130 133 125 116 112 111 113 115 113 117 120 115 107 102 97 93 89 85 83 82 79 77 78 77 77 76 75 77 76 78 85 91 94 99 104 105 105 104 103 103 105 110 120 138 166 175 182 193 200 206 209 209 212 214 216 219 218 219 223 220 218 218 216
213 200 203 206 203 208 222 231 237 257 313 25 55 50 43 72 117 129 122 113 120 132 136 139 145 145 137 126 118 117 118 118 115 110 108 104 98 92 89 83 78 74 70 65 63 62 61 62 63 60 59 61 58 56 60 67 75 84 91 93 94 94 96 98 98 100 117 138 162 178 185 194 200 207 213 215 220 222 223 224 223 224 228 228 225 221 218
216 203 202 202 206 215 224 229 222 203 176 108 50 53 43 34 61 141 136 115 123 136 143 143 139 135 130 123 119 117 110 103 99 93 90 88 84 78 72 67 64 60 56 51 48 46 43 40 40 39 41 44 47 45 42 47 60 73 80 83 81 81 82 80 79 78 87 111 146 175 186 201 208 214 221 223 226 230 232 234 232 230 233 235 232 225 221
232 213 200 202 220 224 221 335 316 209 175 172 169 132 90 47 38 76 98 112 129 139 142 138 132 127 121 113 107 103 96 87 80 77 75 74 74 72 65 60 56 49 45 42 37 36 34 30 26 25 22 21 27 38 37 33 37 47 61 69 66 61 60 57 53 46 40 43 37 34 215 226 228 230 233 232 235 237 239 241 240 239 241 242 238 231 226
247 201 187 207 226 213 99 40 13 355 224 165 140 123 124 116 105 107 111 123 132 129 123 123 123 121 114 102 91 83 80 79 75 70 65 61 61 63 59 56 53 45 41 38 32 26 23 21 22 20 12 7 10 23 27 23 24 29 40 57 58 50 44 42 33 20 13 11 5 353 318 273 255 249 244 240 237 236 238 240 241 241 244 245 245 240 236
250 181 191 209 197 112 91 75 70 39 176 153 135 123 124 128 132 129 127 129 126 118 118 119 118 116 107 90 76 71 69 72 72 68 65 61 58 58 57 55 52 43 37 37 34 23 16 16 18 16 7 359 2 11 12 8 11 17 23 43 51 43 34 31 22 8 359 351 342 328 311 297 282 266 255 248 243 238 238 243 243 241 242 245 248 247 245
237 221 212 177 133 144 118 92 77 51 82 110 109 139 125 125 144 137 129 129 128 125 127 126 124 123 113 97 91 94 92 90 86 80 76 71 65 62 59 56 54 44 33 32 32 24 16 12 8 5 359 356 359 4 1 355 355 1 13 31 36 29 20 15 5 354 348 341 332 322 308 296 287 280 272 263 253 243 242 246 248 248 246 247 247 245 241
237 250 249 232 220 217 126 94 66 24 20 14 358 88 126 159 193 145 135 138 137 134 137 138 141 142 124 106 111 118 119 121 117 112 108 99 90 83 76 74 75 62 39 28 29 30 20 7 357 351 349 351 353 350 344 340 339 344 357 10 11 6 0 352 345 341 337 332 328 322 309 297 291 287 280 273 265 256 249 248 250 251 251 250 249 244 237
249 260 262 257 252 275 75 82 63 27 12 357 323 220 160 176 188 150 145 152 148 143 147 151 161 179 149 118 120 120 116 112 108 112 114 111 112 108 93 85 88 80 52 24 21 30 21 0 344 337 336 341 341 334 332 333 334 338 346 350 348 344 339 334 330 328 324 321 319 314 306 300 296 291 283 276 270 264 258 254 253 251 249 250 250 246 244
254 257 264 275 79 67 43 45 39 17 7 333 266 233 165 143 154 147 147 153 148 145 155 156 151 126 106 118 120 113 108 101 90 86 86 85 90 87 70 54 38 33 28 14 8 7 357 343 331 326 330 336 335 332 333 333 334 338 340 338 334 330 326 322 317 312 308 306 306 304 300 297 294 289 283 278 272 266 260 256 256 254 249 247 248 247 244
263 263 262 249 103 69 19 17 15 351 330 255 229 177 120 138 149 142 142 150 147 148 160 150 92 78 94 111 113 107 104 100 91 86 78 69 64 58 52 44 26 14 5 355 350 343 334 330 327 329 335 335 332 333 333 330 331 333 330 325 321 318 314 310 304 300 297 296 296 295 293 290 287 283 279 276 271 266 260 256 256 257 252 245 244 246 239
268 264 260 246 109 39 350 5 23 345 315 207 127 86 107 132 139 133 132 141 151 146 121 93 90 97 104 109 109 103 97 94 90 84 75 67 62 53 45 56 44 6 340 320 325 325 323 326 330 334 337 334 331 332 328 325 327 326 322 317 312 307 303 298 294 291 288 286 285 284 281 281 280 277 274 272 270 265 259 254 254 254 251 246 242 239 231
280 253 255 253 109 25 334 331 44 6 10 110 108 95 101 99 100 109 107 101 120 124 101 93 100 105 101 98 99 93 88 86 84 79 70 61 60 45 20 28 29 354 330 325 331 327 329 338 341 341 339 336 336 333 328 327 328 324 320 315 309 303 299 293 287 283 280 277 276 273 271 271 272 271 270 268 265 262 256 252 252 251 248 243 238 234 228
303 281 287 332 69 51 12 17 66 58 61 82 97 101 106 108 108 107 99 90 93 104 108 110 109 102 93 87 83 78 73 68 61 60 59 49 41 24 2 9 10 345 331 333 333 332 341 348 343 339 336 332 331 329 326 324 323 318 314 311 307 303 299 293 288 284 280 278 275 271 268 267 265 265 265 262 260 258 254 251 249 246 243 239 230 225 232
17 36 73 86 75 70 67 71 94 101 95 88 101 105 97 83 97 108 108 102 93 93 111 117 102 86 76 71 68 58 50 57 52 39 42 41 24 4 357 3 357 340 331 329 331 337 347 343 331 323 325 325 324 325 326 323 320 316 313 311 309 306 303 299 296 294 290 285 280 275 270 266 263 260 259 257 255 254 251 251 250 247 244 243 232 216 219
96 73 81 97 90 81 77 75 85 97 94 86 100 105 81 47 50 75 93 96 81 65 74 85 79 68 58 55 58 47 37 48 47 33 31 27 10 358 357 358 350 338 329 329 338 343 340 332 323 319 324 327 327 327 325 322 319 316 314 311 307 305 303 301 300 298 294 290 286 281 275 268 263 260 257 255 253 251 249 248 250 250 245 243 239 222 212
145 108 104 110 110 108 104 95 90 91 86 74 74 85 84 67 60 65 69 73 67 55 52 53 54 56 53 42 35 34 34 34 31 28 22 11 3 357 353 351 346 337 331 334 341 339 333 331 332 331 329 326 325 323 321 318 316 313 309 306 303 302 301 300 299 298 294 290 288 287 283 275 267 262 257 254 252 250 248 246 245 249 251 247 248 244 229
116 114 120 124 120 117 117 113 109 107 101 89 83 87 94 94 90 90 87 81 70 62 58 52 42 42 51 44 22 11 12 12 12 14 11 4 356 348 347 349 346 338 334 335 334 332 331 330 331 330 327 325 323 321 319 317 315 310 307 304 301 299 297 296 295 294 292 290 286 283 281 277 273 268 261 257 254 249 248 247 243 246 249 247 248 251 240
113 121 134 138 132 128 125 111 104 108 110 107 108 112 114 114 113 111 103 86 73 68 60 47 34 31 42 40 18 356 350 0 8 7 2 355 347 344 345 344 335 327 329 335 334 333 333 333 331 330 328 325 324 321 319 317 314 309 306 303 299 296 295 293 292 291 291 290 288 285 281 275 272 271 266 262 261 258 255 254 248 243 240 238 243 256 254
145 134 148 149 139 139 135 121 110 107 108 113 121 122 118 110 100 91 88 85 79 71 57 38 24 23 27 24 9 349 342 356 3 358 353 349 344 342 341 335 327 324 332 338 337 334 334 334 332 329 326 324 322 321 319 316 313 309 306 303 299 297 294 292 290 291 290 289 290 293 291 282 275 274 271 266 264 265 267 268 262 250 242 238 238 237 224
64 111 146 153 34 102 129 130 124 113 107 117 121 103 82 78 68 43 35 48 58 61 55 39 23 16 11 5 357 343 337 344 347 346 346 344 336 333 331 327 328 334 336 336 334 333 334 333 329 326 324 323 322 322 319 315 312 309 306 303 300 296 294 293 291 290 288 287 286 289 291 289 283 279 277 272 263 258 259 262 262 262 255 240 229 224 218
77 109 123 68 54 108 124 124 119 109 95 71 92 90 78 69 68 54 41 39 34 31 32 26 23 21 10 356 347 337 330 332 336 339 336 330 325 327 329 326 330 336 334 331 332 332 330 329 328 327 326 324 323 322 319 314 311 307 304 300 297 294 293 291 288 285 282 282 282 282 284 286 284 280 277 275 267 252 246 248 252 258 261 243 218 216 221
91 99 79 62 81 103 117 125 120 103 76 54 69 82 72 43 28 31 50 49 29 21 15 7 11 15 5 347 336 331 327 328 333 332 325 318 321 326 324 324 330 331 328 327 329 329 328 329 330 327 324 324 324 323 319 314 309 305 303 298 294 292 290 287 286 283 279 277 277 277 276 277 280 280 277 274 273 265 248 238 241 247 250 242 225 219 222
100 108 107 97 97 102 128 142 124 107 95 81 73 87 102 89 51 17 27 40 30 18 4 355 359 358 348 337 332 330 327 325 327 326 321 321 327 324 317 324 328 324 324 325 324 326 328 328 326 324 324 327 328 325 321 315 308 305 301 297 292 288 284 282 282 280 278 276 274 274 274 274 275 278 277 275 275 273 262 239 229 231 230 225 221 220 219
115 135 159 149 131 141 29 61 86 106 125 105 89 102 124 118 113 91 42 91 67 16 342 346 354 343 331 331 329 325 323 322 322 323 323 323 325 319 316 321 320 318 321 322 321 325 326 324 324 327 329 331 332 327 321 315 310 305 301 296 291 286 282 279 276 273 271 271 269 268 270 271 271 273 277 278 278 275 269 255 238 230 220 206 201 203 202
132 138 274 300 309 92 67 69 97 140 155 107 54 311 63 97 111 168 223 104 33 354 328 338 351 336 325 327 326 322 322 321 320 323 325 326 326 323 318 318 320 321 319 315 316 322 323 324 329 334 335 334 332 326 320 315 311 307 303 299 295 292 288 282 276 270 265 264 265 264 263 265 269 274 277 280 281 279 274 263 248 240 227 196 185 192 196
162 134 311 343 32 61 112 134 151 182 181 160 277 279 344 103 219 218 188 289 308 313 315 328 339 326 319 325 325 319 316 317 319 321 319 319 322 323 323 323 321 316 308 307 320 329 330 330 333 334 336 338 334 326 322 319 313 310 308 304 303 303 304 304 298 284 271 264 265 265 262 263 268 272 274 277 279 279 278 270 248 234 226 185 173 176 181
171 173 229 232 103 187 211 188 199 227 222 220 253 260 237 212 252 251 252 284 292 297 303 312 319 316 316 322 321 316 317 323 324 320 312 309 314 322 327 328 325 320 315 319 330 333 329 328 333 336 339 339 336 330 327 325 318 314 312 310 310 313 318 323 321 304 282 270 269 269 265 264 265 265 268 273 276 279 283 277 253 212 184 187 181 168 161
184 181 221 259 230 242 249 242 239 247 245 241 251 253 224 217 256 274 285 285 287 290 293 301 311 317 323 327 323 321 326 330 327 319 306 301 308 318 325 327 320 312 308 313 322 323 315 314 329 339 341 340 338 334 331 328 321 318 318 316 315 318 326 333 330 314 291 279 274 272 269 266 264 262 264 270 273 276 280 276 260 201 172 191 196 174 161
198 195 201 219 235 248 256 260 261 261 253 236 244 247 230 223 245 271 282 284 288 293 296 303 309 319 347 345 332 330 332 328 322 310 297 305 316 323 327 324 307 295 297 305 314 315 308 312 330 342 345 345 343 337 333 331 325 322 323 323 321 324 334 338 330 313 294 284 275 270 270 268 266 266 266 267 267 268 269 269 258 194 185 196 190 165 161
214 220 222 228 244 257 261 262 264 264 250 220 232 244 239 235 247 258 263 276 288 290 295 302 298 146 135 304 313 321 324 320 311 291 289 315 325 329 331 325 308 300 302 307 309 308 310 323 336 342 344 344 342 339 339 336 328 324 328 332 334 336 341 338 328 317 306 297 286 277 272 269 267 271 272 270 266 266 269 271 248 200 196 191 166 148 157
230 254 275 275 274 281 287 284 272 268 248 211 222 233 232 230 242 251 260 285 293 287 285 281 218 176 183 221 275 304 311 310 308 307 317 324 328 333 335 327 315 310 307 302 301 310 324 337 340 339 339 338 337 344 351 346 334 329 334 339 344 348 344 336 331 325 314 306 300 289 277 276 279 278 273 270 268 265 265 265 242 212 176 122 118 135 153
234 250 266 282 292 298 300 293 282 274 246 213 217 230 232 224 227 237 259 286 282 274 258 223 204 199 208 230 259 278 279 282 293 304 314 321 326 331 329 318 311 310 302 291 300 325 336 336 331 331 337 338 339 351 2 358 348 343 343 343 348 352 344 334 331 326 314 307 307 294 278 280 287 282 274 284 298 272 247 235 217 171 103 89 103 125 137
222 228 227 242 270 281 284 283 270 244 226 207 197 214 233 231 229 241 250 265 269 257 194 174 193 203 214 229 247 263 267 269 275 285 303 318 321 323 319 310 307 306 296 292 320 341 338 331 325 325 335 342 344 358 10 9 2 356 351 349 350 353 348 344 345 349 356 359 346 325 304 308 319 330 10 37 36 38 95 85 81 92 92 92 104 117 123
211 220 236 261 274 278 277 271 236 219 217 195 175 193 217 224 229 242 254 272 277 252 189 188 202 210 222 234 244 255 263 265 267 276 296 310 311 311 308 299 292 292 292 308 342 346 334 331 333 333 337 343 347 359 9 7 1 357 358 357 356 355 353 352 358 15 29 22 6 2 357 340 341 22 57 52 43 47 60 66 69 75 82 91 106 119 127
201 204 228 255 263 264 255 238 216 208 202 181 172 192 211 218 231 252 272 285 276 234 203 210 216 218 226 235 242 251 260 264 264 269 283 297 300 297 292 288 291 303 311 325 341 338 327 332 341 341 337 340 347 355 360 359 358 2 7 8 8 5 1 357 357 8 22 17 8 15 21 4 356 35 67 63 52 49 54 64 78 84 86 95 109 121 127
211 213 207 213 224 218 197 200 205 198 188 186 191 201 206 213 230 246 261 270 264 236 226 233 229 220 219 222 229 240 248 253 257 262 270 282 284 277 271 270 278 304 314 319 328 328 328 341 348 344 338 341 346 349 353 356 0 8 15 20 20 18 16 11 4 2 12 16 13 19 27 23 18 28 46 63 77 79 68 62 69 79 88 99 109 114 116
230 229 219 214 214 208 196 201 207 204 196 198 204 205 205 215 229 241 254 262 252 234 246 256 250 236 230 231 236 238 231 227 234 244 252 262 267 265 262 253 226 256 312 321 330 337 344 354 353 345 343 346 344 345 354 358 360 10 24 29 28 25 25 27 23 17 17 20 21 24 30 33 32 31 32 42 60 69 66 63 68 78 89 100 107 111 115
233 230 230 229 224 224 226 219 213 212 211 211 214 215 217 224 234 248 263 267 249 235 255 264 260 258 257 255 259 263 238 217 219 227 233 243 255 264 265 234 121 37 312 318 339 349 353 359 355 347 352 354 345 343 355 357 358 15 32 32 31 33 34 35 36 35 32 31 34 37 41 45 48 49 47 48 52 58 64 72 81 87 93 100 106 110 116
235 236 241 245 242 240 240 236 233 232 229 225 222 222 222 227 236 245 253 255 248 255 262 248 239 264 284 278 264 267 259 235 228 233 237 244 262 284 301 6 56 335 308 318 347 347 346 358 5 357 357 358 353 353 357 356 0 23 38 35 34 38 39 40 43 45 43 42 45 48 53 56 59 62 64 64 63 65 69 77 85 89 93 99 102 103 106
226 230 234 239 241 241 242 242 244 248 246 242 237 232 227 226 230 238 245 243 240 253 263 238 209 226 248 252 251 256 250 233 229 236 234 226 226 263 301 339 350 320 316 334 354 342 345 9 13 358 355 1 5 4 0 359 7 27 38 39 40 42 41 43 47 48 48 49 50 51 54 59 61 63 65 67 68 71 75 80 84 87 89 93 94 93 93
226 231 234 236 236 239 242 241 240 242 247 247 242 238 234 230 228 231 239 240 235 239 255 262 244 228 230 238 248 256 253 239 231 235 236 219 195 186 211 354 346 327 327 345 353 342 353 11 3 352 1 20 18 6 0 2 17 30 35 40 46 48 46 48 49 49 50 54 55 55 56 59 60 62 63 65 67 70 73 76 79 82 85 87 87 87 91
235 239 244 246 243 243 246 245 239 243 259 262 252 242 237 235 233 231 233 237 238 235 239 252 256 247 237 238 244 258 278 288 281 275 281 274 178 139 113 42 354 324 330 5 10 350 344 339 334 344 9 30 17 5 3 11 26 33 35 41 47 50 51 54 56 56 56 58 60 61 61 61 62 63 63 63 65 68 71 74 77 80 83 85 88 94 99
243 238 241 247 250 252 256 254 241 233 243 251 249 243 239 238 238 236 233 233 235 233 231 236 242 242 239 239 239 243 252 253 238 249 291 323 51 98 23 323 310 290 306 40 21 351 322 311 322 345 35 46 18 5 4 15 29 31 35 42 48 51 56 59 61 63 64 65 67 69 68 67 67 67 65 66 68 70 72 75 77 79 81 85 90 95 98
280 262 244 236 238 247 256 260 253 241 236 238 241 242 240 237 237 238 237 236 235 232 229 230 232 230 229 231 233 236 241 236 217 200 196 199 179 119 341 333 336 2 73 69 8 341 324 316 323 3 74 63 24 5 1 11 22 23 28 35 41 50 62 67 66 68 70 74 78 79 77 74 73 72 70 70 71 71 73 77 81 83 84 87 90 93 96
300 283 263 245 238 241 246 250 249 244 241 244 249 248 243 241 241 240 238 237 236 232 230 229 229 225 219 218 224 233 245 251 239 194 167 169 174 153 148 257 294 330 18 22 332 335 338 335 339 79 79 45 14 6 17 30 29 27 29 31 32 35 47 60 68 71 74 76 79 80 78 77 77 78 76 75 76 77 79 81 85 87 89 91 94 97 99
253 257 256 250 246 247 246 246 247 246 245 248 250 244 232 228 234 239 238 236 234 232 230 228 225 220 214 214 218 219 219 225 236 215 142 154 178 169 165 224 261 295 29 60 259 314 339 350 41 96 74 33 12 22 43 45 46 48 47 47 44 41 44 54 65 75 83 86 85 84 84 84 82 82 82 81 82 84 85 86 89 95 99 100 100 101 103
236 244 248 246 246 249 247 243 245 247 247 249 255 261 257 243 234 231 230 231 232 233 234 232 228 220 211 209 214 213 205 202 207 204 182 177 188 177 160 194 253 254 187 164 207 276 335 1 49 73 47 20 22 47 50 49 59 63 58 62 70 67 65 69 73 76 82 92 93 93 94 93 90 89 90 90 90 91 92 93 95 101 104 104 103 105 107
247 246 247 245 246 248 245 241 244 251 252 249 250 258 262 258 250 243 238 236 236 235 234 233 232 228 217 209 207 208 201 193 192 194 191 188 191 190 186 200 239 254 219 184 194 236 306 316 279 63 27 22 40 59 56 59 71 71 65 69 75 77 79 84 84 81 84 89 92 93 97 100 99 97 96 96 96 98 99 100 100 101 100 100 102 105 107
246 244 245 249 251 252 251 248 247 248 249 246 242 238 237 239 242 244 240 234 233 237 239 236 232 231 227 217 210 207 200 190 187 191 191 187 189 196 200 204 216 225 210 196 201 208 211 213 195 157 84 57 58 75 77 76 77 77 78 81 82 80 79 81 84 89 93 95 95 96 98 100 101 101 100 100 101 102 101 101 101 100 99 100 103 104 105